星链-5908 (STARLINK-5908 )

导读 | 豆包AI

STARLINK-5908是美国太空探索技术公司星链星座的一颗卫星,于2023年3月17日发射升空,隶属于Starlink Group项目组。作为星链低轨互联网星座的组成部分,它旨在为全球提供高速低延迟宽带网络服务,填补偏远地区互联网覆盖空白,目前已在既定近地轨道开展运行任务。

Basic Information
目录编号:
55951
目录名称:
STARLINK-5908
国际标识:
2023-037AP
轨道中心:
EARTH
卫星名称:
星链-5908
卫星全名:
星链-5908 (STARLINK-5908 )
卫星状态:
在轨 (已飞行1140 天)
发射日期:
2023-03-17 UTC
国别 :
美国 (US)
星等 :
--
Orbit Information
数据来源 国际轨道数据 AOE轨道数据
星历时间 2026-04-30T11:42:28+0800
7小时前
查看轨道信息
2026-04-30T15:00:00+0800
3小时前
查看轨道信息
半长轴 6950.218km 6950.224km
偏心率 0.0003646 0.0005004
轨道倾角 69.999° 69.998°
近地点辐角 267.014° 246.444°
升交点赤经 154.515° 154.168°
平近点角 93.060° 133.341°
近地点 569.546km 568.609km
远地点 574.616km 575.565km
周期 96.108分钟 96.108分钟
每日圈数 14.983219 14.983201
Detailed Information
固有亮度:
5
最大亮度:
2.5
卫星平台:
Starlink v1.5
覆盖范围:
全球
运营商:
太空探索技术公司
运营商所在国:
美国
制造商(研发单位):
太空探索技术公司
制造商所在国:
美国
使用方式:
暂无
Satellite Introduction
星链(Starlink)计划是由太空探索技术公司(SpaceX)提出的一个巨型低轨卫星互联网星座项目,计划在2019年至2024年间在太空搭建由约1.2万颗卫星组成的“星链”网络,其中1584颗将部署在地球上空550千米处的近地轨道,并从2020年开始工作。该卫星仍在工作。
2D Orbit Map
3D Orbit Map
Orbit Altitude Analysis Chart
Orbit Inclination Analysis Chart
Orbit Comprehensive Analysis Chart
View Comprehensive Chart